Temp
17 17 17 17 17 17 17 17 17 17 17 17 17 17 17 17 17 17 17 17 17 17 17 17 17 17 17 17 17 17 18 17 17 17 17 17 17 17 17 17 17 17 17 17 17 17 17 17 17 17 17 17 17 17 17 17 17 17 16 16 16 16 16 18 19 18 17 18 16 13 13 14 15 14 13 12 12 13 11 10 11 10 9 7 8 8 8 9
17 17 17 17 17 18 18 18 18 17 17 17 17 17 16 17 17 17 17 17 17 17 17 17 17 17 18 17 17 17 17 17 17 17 17 18 17 17 17 17 17 17 17 17 17 17 18 17 16 16 17 17 17 17 17 17 17 17 16 16 16 17 17 17 18 18 17 18 17 14 13 14 15 14 13 14 14 12 12 12 10 11 11 8 7 7 8 8
17 17 17 17 17 18 18 18 18 18 17 17 17 17 17 17 17 17 17 17 17 17 17 18 17 17 18 18 17 17 17 17 17 17 17 17 17 17 17 17 17 17 17 17 17 17 17 17 16 17 17 17 17 17 17 17 17 17 16 16 16 17 17 17 17 17 16 16 16 15 13 13 14 14 13 14 14 12 13 13 12 12 12 10 7 6 7 7
17 17 18 18 18 18 18 18 18 18 18 17 17 17 17 17 17 17 17 17 17 17 17 17 17 17 17 18 18 17 17 17 17 17 17 17 17 17 17 17 17 17 17 17 17 17 17 16 16 17 17 17 17 17 17 17 17 17 16 17 17 16 17 17 16 16 15 14 15 15 13 13 13 13 13 13 14 14 13 13 14 14 13 10 7 5 6 7
17 18 18 18 18 18 18 17 17 17 17 17 17 17 17 17 17 17 17 17 17 17 17 17 17 17 17 18 17 17 17 18 18 17 17 17 17 17 17 17 17 17 17 17 17 17 17 16 16 17 17 17 17 17 18 18 17 17 16 17 17 16 17 18 16 15 14 13 14 14 14 14 13 12 13 13 15 16 15 13 13 14 13 10 7 5 5 6
18 18 18 18 17 17 17 17 17 17 17 17 17 17 17 17 17 17 17 17 17 17 17 17 17 17 17 17 17 17 17 18 17 17 18 17 17 17 17 17 17 17 17 17 17 16 17 16 16 17 17 17 17 17 18 17 17 17 17 17 16 15 16 16 15 14 13 14 14 14 14 13 13 14 13 12 14 16 15 13 12 12 11 9 7 5 6 7
18 18 18 18 17 17 17 17 17 17 17 17 17 17 17 17 17 17 17 17 17 17 17 17 17 17 17 17 17 17 16 17 17 17 18 17 17 17 17 17 17 17 17 17 17 17 17 17 17 17 17 17 17 17 17 16 16 17 17 17 16 14 15 15 14 13 13 14 14 13 13 13 14 14 12 12 13 14 13 10 9 9 8 7 6 6 6 7
17 18 18 18 18 17 17 17 17 17 17 17 17 17 17 17 17 17 17 17 17 17 17 17 17 17 17 17 17 17 16 17 18 17 18 18 18 17 17 17 17 17 17 17 17 17 17 17 17 17 17 17 17 17 16 16 17 17 17 17 15 14 15 14 13 13 13 13 13 12 13 14 13 12 11 12 13 13 12 10 8 8 7 7 7 6 6 6
17 18 18 18 18 18 18 17 17 17 18 17 17 17 17 17 17 17 17 17 17 17 17 17 17 17 17 17 16 17 17 18 18 18 18 18 18 18 18 17 17 17 17 17 17 16 17 18 18 17 18 17 17 17 16 17 18 16 16 16 15 14 14 13 13 13 13 12 12 12 14 13 12 11 12 13 13 12 12 11 10 9 9 7 7 6 6 6
17 17 17 17 18 18 18 18 18 18 18 18 17 17 17 17 17 17 17 17 17 17 17 17 17 16 17 17 16 17 18 18 18 18 18 18 18 18 18 18 18 17 17 17 16 16 17 18 17 16 17 17 16 16 15 16 16 15 15 14 14 14 13 12 13 13 12 12 12 13 14 14 12 11 14 15 13 11 12 11 9 9 10 8 6 6 5 6
17 17 17 17 17 18 18 18 18 18 18 18 17 17 17 17 17 17 17 17 17 17 17 17 17 16 17 17 17 17 18 18 17 17 17 17 18 18 18 18 18 18 17 17 17 17 17 17 16 16 17 17 16 15 15 15 14 14 14 15 14 13 13 13 12 12 12 12 12 12 13 13 11 11 14 14 11 10 12 12 9 9 9 7 6 6 5 5
17 17 17 17 17 18 18 18 18 18 18 17 17 17 17 17 17 17 17 17 17 17 17 17 17 17 17 16 17 18 18 17 17 17 17 17 18 18 18 18 18 18 17 17 17 17 17 17 16 17 17 16 17 16 15 14 13 14 14 15 15 14 15 13 12 12 12 13 12 12 13 13 12 13 14 13 11 10 11 12 10 8 8 6 6 6 5 5
17 17 17 17 18 18 18 18 18 18 18 18 18 18 18 17 17 17 17 17 17 17 17 17 16 17 17 17 17 18 18 17 17 17 17 17 17 18 18 18 18 18 17 17 17 17 18 17 16 16 15 16 17 15 15 13 13 14 13 14 15 15 15 13 10 11 12 12 12 12 14 15 14 14 14 12 11 11 11 12 10 8 7 6 6 5 5 5
17 18 17 17 17 18 18 18 18 18 18 18 18 18 17 17 17 17 17 17 17 17 17 17 17 17 16 17 18 18 17 17 17 17 17 17 17 18 18 18 18 18 18 18 18 17 18 17 16 15 14 14 15 14 14 14 13 14 14 13 13 14 16 13 11 12 13 12 11 13 13 14 15 15 14 10 10 11 12 12 10 8 7 6 5 5 5 5
17 17 17 17 17 18 18 18 18 18 18 18 17 17 17 17 17 17 17 17 17 17 17 16 17 16 16 17 17 17 17 17 17 17 17 17 17 17 17 18 18 18 18 18 18 17 17 17 16 16 14 13 14 15 15 15 13 13 14 15 12 12 15 14 12 11 14 12 11 13 13 13 13 15 14 9 8 10 11 12 10 8 8 6 6 5 5 5
17 17 17 17 17 18 18 18 18 18 18 18 17 17 17 17 17 17 17 17 17 16 16 16 16 16 16 17 17 17 17 17 17 17 16 17 17 16 16 17 17 18 18 18 18 17 17 17 15 13 14 14 14 16 15 15 14 13 13 15 14 13 13 14 13 11 12 12 12 13 13 13 13 15 13 8 8 9 10 11 9 8 8 7 6 5 5 5
17 17 17 17 17 18 18 18 18 18 18 18 17 17 17 17 17 17 17 17 17 16 16 16 16 16 16 17 17 17 16 16 17 16 16 17 17 16 16 16 16 17 18 18 18 17 17 16 13 13 14 13 13 15 15 15 15 14 12 13 13 13 13 13 14 12 10 11 12 12 11 12 13 13 12 10 9 9 10 11 10 9 8 7 6 6 6 5
17 17 17 17 17 18 18 18 18 17 18 17 17 17 17 17 17 17 17 16 16 16 16 16 16 16 17 17 17 16 16 16 16 16 16 17 16 16 16 15 15 15 17 17 17 17 16 15 14 15 14 13 13 14 15 14 15 14 13 14 13 12 12 12 13 12 11 12 12 11 11 11 12 12 12 12 10 9 10 10 10 9 8 7 6 6 6 6
17 17 17 18 18 18 18 18 18 17 17 18 18 17 17 17 16 17 16 16 16 17 17 16 16 17 17 16 15 16 16 16 16 16 16 16 16 16 15 15 14 16 17 16 17 15 15 15 15 15 15 15 15 14 15 14 13 13 13 13 13 12 12 12 12 11 10 11 11 10 11 11 12 12 12 12 10 10 10 9 9 9 8 7 7 6 6 6
17 17 17 17 18 18 18 18 18 18 18 18 18 17 17 17 17 17 17 16 16 15 16 15 15 16 16 15 15 16 16 16 16 15 15 15 15 15 15 14 15 16 16 16 16 14 13 15 15 15 16 15 14 13 13 12 11 12 12 12 12 11 12 12 12 11 8 11 12 11 10 10 11 11 11 12 11 10 9 9 9 8 8 8 7 7 6 6
17 17 17 17 17 18 18 18 18 18 18 18 18 18 17 17 17 17 17 16 14 12 13 14 13 14 15 14 14 15 15 16 15 15 15 15 14 15 15 14 16 17 14 13 14 13 13 15 15 15 15 13 12 11 11 11 10 11 12 12 11 10 11 11 11 10 9 11 12 10 10 11 11 12 12 12 11 11 10 9 9 9 8 8 8 7 7 7
17 18 17 17 17 18 18 18 18 18 18 18 18 17 15 16 16 17 17 17 15 12 12 13 13 14 15 14 14 14 14 16 15 15 15 14 14 16 15 15 16 16 13 12 14 14 14 15 15 13 11 11 10 9 10 11 11 11 11 11 12 10 11 11 9 9 9 11 12 11 10 11 12 12 12 12 12 11 10 10 10 9 9 8 8 8 7 7
17 17 18 18 17 18 18 18 18 18 18 18 17 16 15 16 16 16 16 17 16 13 13 14 15 15 15 15 14 14 15 15 15 15 14 14 15 14 14 15 15 15 14 14 15 15 15 15 13 10 9 11 11 10 11 11 11 11 11 11 12 10 11 13 11 9 10 10 10 10 9 10 12 12 13 13 11 10 10 9 9 8 9 9 8 8 7 7
17 17 18 18 17 18 17 17 18 18 18 18 17 16 16 16 16 16 16 15 15 14 14 14 14 15 15 15 14 14 15 13 14 15 13 14 14 12 13 14 14 14 14 13 14 14 15 13 10 9 10 11 12 11 11 12 12 11 10 11 12 11 11 12 11 9 10 9 8 10 11 13 14 13 15 14 11 11 10 10 10 8 8 8 8 8 8 8
18 18 18 18 17 17 17 17 18 18 18 17 17 16 16 16 16 17 17 15 15 15 14 13 13 14 15 15 15 14 14 13 13 14 13 13 13 13 13 12 13 15 14 12 12 14 14 11 8 10 11 10 12 12 11 12 12 11 12 11 11 12 11 10 10 11 12 11 9 10 12 15 15 14 14 14 13 13 11 11 13 12 9 8 7 8 7 7
18 18 18 18 17 17 17 17 18 17 18 17 17 16 16 17 16 17 17 15 16 16 14 14 14 15 14 14 14 12 14 15 13 12 12 12 12 13 14 12 12 14 13 11 12 13 12 9 8 11 11 10 11 11 11 11 11 12 11 10 9 10 10 10 10 11 12 12 10 10 11 12 13 14 15 13 13 14 14 14 16 13 10 9 8 8 7 7
18 17 17 17 17 17 17 17 17 17 18 17 16 17 17 17 17 17 16 16 17 16 15 15 14 15 15 13 13 13 15 15 13 12 12 12 12 12 14 13 12 13 11 12 15 13 11 9 9 10 11 11 11 11 11 10 12 13 9 8 9 10 10 10 10 10 11 10 9 8 10 11 11 14 14 12 13 15 16 17 18 17 15 12 8 7 7 7
17 17 17 17 17 17 17 17 17 17 17 17 16 17 17 17 17 17 17 18 17 15 15 15 14 15 14 12 12 14 15 14 14 14 11 12 12 12 14 14 13 13 10 12 16 13 10 11 11 11 11 11 11 12 10 10 12 12 8 7 8 8 9 9 9 10 8 9 10 9 9 11 12 13 13 12 14 16 17 20 20 21 20 17 13 9 7 7
17 17 17 17 16 16 16 17 17 17 17 17 17 17 17 17 17 16 17 18 17 15 15 14 14 14 13 13 13 13 13 13 14 13 11 12 12 12 13 12 12 13 10 11 15 13 10 10 10 10 12 12 11 10 8 10 12 9 6 6 7 6 7 7 8 9 8 9 12 11 9 12 13 15 14 14 15 17 18 20 20 20 19 18 18 15 10 7
16 17 16 16 16 16 17 17 17 17 17 17 17 17 17 17 17 16 17 17 16 15 14 15 15 13 13 14 14 12 12 13 12 12 12 12 12 12 11 10 10 12 11 10 12 11 9 7 7 9 11 11 10 7 5 8 8 7 7 8 9 8 7 7 7 8 9 11 13 11 10 12 13 15 16 15 17 18 19 19 19 19 18 18 19 17 13 9
16 16 15 15 15 16 17 16 16 17 17 17 17 17 18 17 15 17 17 16 16 15 15 15 13 12 13 14 14 13 13 13 11 12 13 12 12 13 11 11 12 12 12 12 12 11 9 8 9 9 8 8 9 8 6 6 6 7 10 11 12 11 9 8 8 8 10 13 13 9 8 10 13 16 17 16 16 16 18 19 19 19 19 19 18 17 13 9
15 15 15 15 15 16 16 16 16 17 17 17 17 16 18 17 15 17 17 16 16 16 15 14 13 12 12 11 13 13 12 13 12 11 13 12 12 13 13 14 15 15 16 15 14 14 13 10 8 8 7 8 10 11 8 7 7 8 10 11 12 12 11 12 11 10 11 12 10 7 8 10 11 14 16 15 14 14 14 16 17 17 17 17 17 16 12 9
14 14 15 15 15 15 16 16 16 16 17 17 17 16 17 17 17 16 15 17 17 14 13 13 11 11 11 12 13 11 11 13 12 11 11 10 12 13 12 11 12 16 16 14 14 16 16 12 7 9 10 8 10 12 12 10 8 9 10 11 12 12 13 13 12 11 11 12 9 7 9 10 11 14 15 15 15 15 14 13 13 14 14 14 14 12 10 9
14 14 15 15 15 15 15 16 16 16 16 17 18 17 16 17 17 14 15 17 15 12 12 11 11 11 11 12 13 11 12 13 11 11 11 11 13 14 13 10 10 13 14 13 14 15 17 16 13 12 12 9 9 11 13 12 9 8 9 10 12 13 14 14 14 13 14 12 9 8 10 11 13 15 15 14 14 14 13 12 11 11 11 10 9 9 10 9
15 15 15 15 15 15 15 16 16 16 16 17 17 16 16 17 16 14 16 16 13 13 12 10 10 13 13 12 11 9 12 13 11 11 12 13 14 15 15 13 10 11 14 15 15 12 14 17 13 9 8 8 9 9 9 11 11 8 8 9 11 12 13 14 12 11 11 10 8 9 10 11 13 14 14 15 14 14 14 12 11 12 10 8 8 10 10 9
15 14 15 14 14 14 15 16 16 16 16 17 17 16 16 17 16 15 14 14 13 14 14 12 12 14 15 14 12 10 10 12 11 13 13 12 13 13 14 14 11 12 14 15 16 14 14 16 11 7 8 7 8 8 8 11 13 9 8 11 10 8 12 13 10 7 7 9 10 10 11 12 12 13 15 16 15 16 16 13 12 12 9 8 9 8 7 7
15 15 14 14 14 14 14 15 16 16 16 17 17 16 15 15 14 14 13 11 11 11 13 15 15 15 16 15 15 12 11 12 12 13 14 13 14 13 13 13 11 11 13 13 15 15 14 15 12 10 11 8 5 7 8 9 11 10 10 11 9 8 10 11 10 9 8 9 10 10 11 12 13 14 15 15 16 17 15 13 13 12 9 8 8 7 6 5
15 15 14 14 14 14 14 15 15 16 16 16 16 15 14 14 12 11 11 10 11 12 13 16 15 15 14 15 16 13 12 14 13 14 15 14 16 15 14 15 12 9 10 11 14 14 12 14 12 8 9 8 5 7 10 9 8 9 10 9 9 10 11 10 10 11 11 10 11 11 10 10 11 13 15 15 15 15 13 11 11 10 8 7 7 7 6 5
15 15 15 14 14 14 14 15 15 15 16 15 16 15 13 13 11 8 8 10 11 12 14 15 14 14 14 14 15 13 12 14 13 13 15 15 16 15 14 16 12 8 8 10 13 13 11 14 13 7 6 8 7 9 12 11 7 7 8 8 8 9 10 10 9 9 10 11 11 11 11 12 11 11 12 12 10 9 8 8 8 8 7 6 6 5 5 4
14 15 15 14 15 15 15 16 15 15 16 14 14 14 12 12 11 7 6 8 11 12 13 13 13 13 14 13 13 13 12 12 12 13 14 14 15 16 14 14 12 8 7 9 11 11 11 13 13 10 7 8 10 10 11 12 11 8 8 8 8 8 9 9 8 8 9 11 11 10 11 13 10 7 8 8 6 6 6 6 6 6 5 5 4 4 3 3
13 16 15 14 15 15 15 17 15 14 14 13 12 13 12 12 11 8 6 6 9 10 10 11 12 12 13 13 13 12 12 12 11 12 13 13 14 16 14 12 13 10 9 10 11 11 12 11 11 12 10 10 12 11 10 12 12 11 10 9 9 9 9 10 9 8 8 9 10 9 10 11 8 5 6 6 5 5 4 4 4 5 4 3 3 3 2 2
15 16 15 14 15 15 15 16 12 10 13 14 12 12 11 10 11 9 7 7 8 9 9 9 10 11 12 12 12 12 12 13 11 11 13 12 13 15 12 10 11 11 11 12 10 9 11 10 10 11 11 12 12 9 8 9 10 10 10 9 9 9 9 11 11 9 8 8 7 7 8 9 6 4 4 4 4 4 4 4 4 3 3 2 2 2 2 2
15 16 15 14 15 15 15 15 12 12 14 12 10 10 9 9 10 9 8 9 9 9 9 10 10 11 11 11 11 11 12 12 12 13 13 12 12 13 10 9 10 11 12 12 10 9 10 11 11 11 11 13 11 7 6 6 8 9 9 8 8 9 9 10 9 8 8 9 8 7 8 9 6 4 4 4 4 4 4 4 3 3 2 2 2 1 1 1
14 13 13 14 15 15 16 15 14 14 14 11 11 12 10 9 10 10 10 10 9 9 10 11 10 11 10 9 10 11 11 12 13 13 12 12 12 10 8 8 10 11 12 12 12 11 11 12 11 10 10 12 12 10 9 8 8 9 9 7 7 8 9 8 7 7 7 9 10 8 9 10 6 3 3 3 3 3 3 3 3 2 1 1 1 1 1 1
14 13 13 14 14 14 14 13 13 15 14 13 13 12 11 10 9 9 10 10 9 9 11 10 9 9 9 9 10 10 11 12 12 12 11 11 12 10 8 7 8 10 11 10 10 11 11 11 11 11 10 10 11 12 12 10 9 9 8 7 7 8 8 8 8 8 8 9 10 8 9 11 7 2 2 3 2 2 3 3 3 2 1 1 1 1 1 1
15 15 14 14 14 13 11 9 11 14 13 13 14 11 11 13 11 7 8 10 9 8 9 9 9 9 9 9 10 11 10 11 11 11 11 11 12 11 8 7 8 9 9 8 8 10 10 10 10 10 11 10 11 12 11 10 9 9 9 8 8 8 7 7 7 7 7 8 8 9 10 10 5 1 1 2 2 2 1 2 2 1 0 0 -0 0 0 0
15 15 14 14 14 14 13 11 12 14 12 12 13 12 11 13 12 10 8 9 8 8 9 9 9 10 11 10 10 11 10 10 10 10 11 10 11 11 8 7 8 7 6 7 8 9 10 9 9 9 10 10 11 11 10 9 8 9 8 8 7 6 6 6 6 7 8 7 7 8 9 6 2 0 1 1 1 1 1 1 1 0 -0 -0 -0 -0 -0 -1
13 14 11 11 14 15 14 12 12 12 12 11 12 11 12 13 13 13 11 9 7 8 9 11 10 11 11 10 10 10 10 10 10 10 11 10 10 10 9 9 7 5 5 7 7 8 9 9 9 9 9 9 9 8 9 8 8 8 6 5 4 4 4 4 5 5 5 5 4 5 5 3 0 0 1 1 1 0 0 1 0 -0 -1 -1 -1 -1 -1 -1
12 13 10 9 12 13 11 10 10 12 12 11 11 12 12 13 13 13 12 10 10 9 9 12 13 11 10 8 9 10 11 11 10 10 11 10 9 9 9 10 7 4 5 7 7 7 7 8 8 8 8 8 8 8 8 7 7 6 3 1 2 2 2 1 2 2 1 2 2 1 2 2 1 0 1 1 1 -0 -0 0 -0 -1 -1 -2 -1 -1 -2 -2
13 14 12 11 12 10 9 9 10 12 11 10 12 12 11 12 13 11 10 11 12 11 8 11 12 11 9 9 9 10 11 11 10 9 9 9 9 8 9 10 8 6 6 7 6 6 6 7 7 7 7 7 7 8 7 6 6 4 1 0 1 1 1 0 0 0 -0 -0 0 0 0 1 1 1 0 1 1 -0 -1 -0 -1 -1 -2 -2 -2 -2 -2 -3
12 12 11 14 13 10 10 10 10 12 12 11 12 12 11 11 11 10 11 11 11 11 10 11 11 9 9 9 8 9 10 9 9 9 9 8 8 8 8 8 7 6 6 6 5 6 6 6 6 6 6 6 7 7 6 6 6 3 -1 -1 0 0 1 0 -0 -0 -1 -1 -1 -0 -1 -1 0 0 -1 -0 0 -1 -1 -1 -1 -2 -2 -2 -2 -2 -3 -3
11 11 11 14 13 9 9 11 10 11 12 10 10 11 11 11 9 9 11 11 10 10 9 9 9 9 9 9 9 9 8 7 7 7 7 6 6 6 6 5 5 5 5 5 5 5 5 4 5 5 4 4 6 7 5 5 6 3 -0 -1 -0 0 1 0 -0 -1 -1 -1 -1 -1 -1 -1 -0 -1 -2 -1 -1 -1 -1 -1 -2 -2 -3 -3 -2 -3 -3 -3
Height
813 813 812 812 812 811 811 811 812 812 813 813 814 814 815 815 815 815 815 816 816 816 816 816 815 815 815 815 815 815 815 815 815 815 814 814 813 813 811 810 810 809 809 809 809 810 809 810 810 811 812 813 815 814 813 812 813 816 822 827 827 826 823 816 811 813 812 808 812 817 817 817 815 816 817 817 817 816 818 819 816 815 815 816 815 814 815 815
813 813 812 812 812 811 811 811 811 812 812 813 813 813 814 814 814 815 815 815 815 815 816 815 815 815 814 815 815 815 815 815 815 814 814 813 812 812 811 810 809 809 809 808 808 809 809 809 810 811 812 814 815 814 813 812 813 817 824 827 823 820 816 811 808 809 810 807 810 814 816 816 813 814 817 816 815 817 817 815 817 816 813 814 815 815 815 815
813 813 812 812 811 811 811 811 811 811 811 812 813 813 813 813 814 814 814 815 815 815 815 815 815 814 814 815 815 816 815 815 815 814 814 813 812 811 810 810 809 808 808 808 808 808 808 809 810 812 813 815 815 815 815 814 814 816 820 824 819 814 812 810 810 809 809 809 810 813 815 816 814 814 816 815 815 817 814 810 812 813 809 811 814 815 815 816
813 812 812 812 811 811 810 810 810 810 810 810 811 812 812 812 813 813 813 814 814 814 814 814 814 814 814 814 816 816 815 817 816 814 814 813 812 811 810 810 809 808 808 808 808 808 809 810 811 812 814 816 816 816 816 814 814 816 818 818 814 813 812 808 809 810 811 812 811 812 815 814 813 814 814 815 814 812 809 805 804 803 802 807 813 814 815 815
812 812 812 811 811 810 810 810 810 809 809 809 810 810 811 812 812 812 813 813 813 814 814 814 814 814 814 814 816 816 817 820 816 813 814 813 812 811 810 809 809 808 808 808 808 809 809 810 811 812 814 815 815 816 814 811 812 814 815 813 812 814 811 806 809 812 813 814 813 813 813 811 812 814 812 813 809 800 799 799 799 798 799 805 809 811 814 814
812 812 812 811 811 810 810 810 809 809 809 809 809 809 810 811 811 812 812 812 813 813 813 814 814 814 814 815 817 816 819 820 815 813 813 813 812 811 810 809 809 808 808 808 808 809 809 810 811 812 814 814 815 814 811 810 812 813 812 810 811 813 810 808 811 813 814 813 812 812 811 811 812 810 809 811 803 793 795 797 798 798 799 802 806 809 811 811
812 812 812 811 810 810 809 809 809 809 808 808 808 808 809 809 811 811 811 812 812 812 813 813 813 814 815 816 816 817 820 818 813 813 813 812 812 811 810 809 809 808 808 808 808 808 809 810 811 812 814 814 814 813 811 811 811 812 811 808 810 814 811 810 812 814 815 813 812 814 813 811 810 807 809 807 797 793 797 798 798 798 799 802 805 807 807 807
812 812 811 810 809 808 808 807 807 807 807 807 807 807 808 808 809 811 811 811 811 812 812 813 814 814 815 816 817 819 820 815 813 813 812 812 811 810 810 809 809 808 808 808 807 808 809 810 811 812 813 813 813 812 812 812 810 811 810 808 811 813 811 813 814 814 815 814 814 815 812 809 809 811 810 802 794 795 797 798 799 799 800 802 803 804 805 805
812 811 810 810 808 808 807 806 805 805 806 806 806 806 807 808 809 810 810 811 811 812 812 813 814 814 816 816 817 819 817 813 813 812 812 811 811 810 809 809 808 808 807 807 807 807 808 809 809 810 811 812 812 811 813 812 811 810 810 811 812 813 813 814 814 813 814 814 815 813 810 809 812 813 804 793 792 794 796 797 798 799 800 801 801 802 802 803
812 811 810 809 808 807 806 805 804 804 805 805 806 806 807 808 808 809 810 811 811 812 813 813 814 815 816 815 817 819 814 812 812 812 811 811 810 810 809 809 808 808 807 807 807 807 808 807 808 808 809 810 811 813 815 813 812 813 814 814 813 815 815 816 815 815 816 815 814 813 809 807 812 814 798 786 791 794 794 796 797 798 798 799 800 800 800 800
812 811 810 809 807 806 805 804 803 804 804 805 806 806 807 808 808 809 810 811 812 812 813 813 814 815 815 815 818 818 813 812 812 811 811 810 810 809 809 809 808 808 807 807 807 807 807 806 807 808 809 810 811 814 815 813 814 815 815 813 814 816 814 815 816 816 817 814 814 814 811 809 812 811 794 785 793 795 793 794 796 797 796 798 798 798 799 798
811 810 809 808 807 806 805 804 804 804 805 806 806 807 808 808 809 809 810 811 811 812 813 813 814 815 815 815 817 815 812 812 812 811 811 809 809 809 808 808 808 808 807 807 807 806 807 806 806 807 809 810 811 813 813 814 816 815 816 813 812 814 811 813 816 816 816 813 813 815 809 804 806 800 786 787 794 795 794 793 795 797 796 797 798 798 798 796
811 810 809 808 807 807 806 806 805 805 806 806 807 808 808 808 809 810 810 811 811 812 813 813 814 814 815 816 815 813 812 812 811 811 810 809 809 808 808 808 808 807 807 807 807 806 806 805 806 808 809 810 811 813 813 816 816 815 818 818 815 813 809 813 819 817 816 814 813 814 806 794 794 789 784 791 794 793 793 791 793 796 796 798 797 797 796 795
811 810 810 809 808 808 808 807 806 806 807 807 808 809 809 809 810 810 811 812 812 813 813 814 815 814 815 815 812 812 812 812 811 810 809 809 808 807 807 808 807 807 807 806 806 806 805 805 806 807 811 812 812 813 815 818 818 817 819 821 824 820 809 811 818 815 812 814 814 814 808 794 788 785 784 792 794 793 790 787 791 794 794 795 795 796 794 793
811 811 810 810 809 809 809 808 808 808 808 809 809 810 810 810 811 811 812 812 813 813 814 815 815 815 817 815 811 812 812 811 811 810 810 809 808 807 807 806 806 806 806 806 806 806 806 806 806 809 813 814 814 814 816 818 820 822 818 817 826 825 813 809 815 815 810 812 816 814 807 796 790 784 784 793 795 793 790 786 790 792 792 792 792 793 791 789
812 811 811 810 810 810 809 809 809 810 810 810 810 810 811 811 812 812 812 813 814 814 814 815 814 815 817 815 812 811 811 811 811 811 810 809 808 808 807 806 806 805 805 806 805 806 806 806 811 815 814 814 816 816 818 820 820 826 824 817 821 822 819 813 811 815 814 812 814 812 805 796 788 781 784 794 795 794 792 787 788 789 788 789 788 788 787 786
812 811 811 811 811 811 810 810 811 811 811 811 811 811 811 812 812 812 813 814 814 815 815 815 814 815 816 813 812 812 812 812 811 811 810 809 808 807 807 806 805 805 805 804 804 806 806 809 814 816 816 820 822 818 820 822 818 822 828 823 821 821 822 816 809 813 818 815 811 811 811 801 787 780 784 790 792 793 791 784 784 785 784 784 784 784 783 783
811 811 812 811 812 812 811 812 812 812 812 812 812 812 812 813 813 814 814 814 815 815 815 815 815 817 816 813 813 813 812 811 811 811 810 809 808 807 807 806 806 805 806 806 806 807 808 812 816 816 818 821 821 819 820 821 818 819 823 821 821 823 822 820 813 813 816 814 812 813 812 801 787 781 780 782 787 789 785 781 779 779 779 780 781 780 779 778
811 812 811 812 812 812 812 813 813 813 813 813 813 813 813 814 814 815 814 815 815 816 816 816 816 818 818 814 814 813 811 811 810 810 809 809 808 807 807 807 807 806 808 810 808 810 812 813 816 817 817 816 817 818 817 818 820 821 823 823 822 821 820 819 815 815 820 815 811 813 809 797 786 780 775 775 782 785 780 778 775 774 775 775 777 776 775 774
811 811 811 812 812 813 813 813 813 813 813 813 813 813 815 816 818 817 815 814 816 816 816 817 816 817 816 815 814 812 811 810 810 810 810 808 808 808 808 808 808 808 811 812 810 815 817 814 816 815 812 813 817 821 820 823 828 826 825 825 824 825 819 814 813 818 824 815 804 808 808 798 787 779 772 771 777 780 776 775 772 769 770 770 771 771 770 769
811 811 811 812 812 813 813 814 814 813 813 814 813 814 816 817 819 817 815 815 816 816 816 816 817 816 814 814 814 812 812 810 809 810 809 809 809 808 809 810 810 810 815 820 817 817 819 815 814 813 813 817 822 827 826 827 829 826 825 824 825 829 820 812 817 820 822 816 805 808 807 793 781 773 767 767 771 770 768 769 766 763 764 765 766 766 765 764
811 811 811 811 812 813 813 814 814 813 814 813 813 814 815 815 815 815 815 816 815 816 816 816 816 815 814 814 813 813 814 812 811 810 809 809 808 808 810 811 811 812 817 822 817 816 819 814 810 816 823 825 826 830 827 825 827 825 828 827 822 826 821 814 820 823 821 815 804 806 808 789 772 768 764 762 763 760 759 761 759 757 759 761 761 761 761 761
810 810 811 811 812 812 813 814 813 814 814 813 814 814 814 814 814 814 814 816 816 815 816 815 815 815 814 814 814 814 814 814 813 811 811 809 809 812 812 811 813 814 816 816 814 817 816 811 814 823 827 823 822 827 825 823 825 824 827 824 817 822 820 808 813 821 818 815 810 809 811 792 770 763 756 754 759 758 757 758 757 758 756 754 755 755 756 757
809 810 810 810 812 812 813 813 813 814 813 814 814 813 814 814 814 814 814 819 819 816 816 815 816 815 814 814 814 814 815 817 816 812 812 810 812 815 813 813 816 815 816 817 817 816 811 813 823 826 824 821 819 821 823 820 820 823 824 821 814 816 818 811 816 820 813 817 820 810 801 781 763 761 751 748 757 755 754 755 751 754 754 750 751 750 749 749
809 809 809 810 811 811 813 813 813 814 814 814 814 814 815 813 814 814 814 821 821 817 816 816 816 815 815 815 814 815 817 816 815 813 813 813 813 814 814 818 816 811 817 822 822 815 810 820 828 822 821 823 819 818 820 818 819 820 816 815 814 813 817 819 820 816 805 806 814 810 798 774 758 761 752 746 751 748 749 751 741 742 748 748 747 744 743 743
808 808 809 809 810 811 812 812 813 814 814 815 814 814 814 813 815 813 816 827 824 816 817 816 816 815 814 815 815 817 817 815 814 814 813 813 813 813 814 818 819 815 819 823 820 814 816 825 827 820 820 822 820 819 820 821 820 816 814 819 822 819 820 821 819 815 805 802 808 813 809 792 771 755 746 750 752 744 743 741 733 734 740 742 742 740 740 740
807 807 808 808 810 810 811 812 812 813 814 814 814 814 814 814 815 812 819 829 823 817 818 816 817 816 815 817 816 816 815 813 813 813 814 813 813 814 812 816 818 817 823 822 812 811 818 823 824 822 820 821 819 816 818 822 817 812 821 827 823 821 822 822 820 818 817 813 812 817 815 807 789 756 745 756 750 738 735 728 723 725 728 733 737 737 736 735
806 807 807 808 809 810 811 812 812 813 814 813 814 814 813 815 814 813 822 828 821 817 818 816 816 815 815 816 817 817 815 814 813 812 814 814 813 814 812 814 815 815 823 821 806 810 819 816 816 819 819 819 815 811 816 818 811 812 827 831 826 827 825 826 826 822 829 823 805 810 815 804 787 757 748 757 747 737 730 719 715 714 714 720 725 730 732 731
806 806 807 808 809 810 812 811 812 813 813 813 813 813 814 814 813 818 828 828 819 817 818 816 815 816 818 817 817 819 817 815 815 813 814 814 812 813 813 816 819 816 822 822 808 809 818 818 818 817 813 812 810 817 823 816 811 819 831 832 830 835 831 831 832 824 833 825 792 794 807 793 772 748 743 750 743 734 726 716 715 714 714 716 716 720 725 728
806 806 807 808 809 811 811 812 813 813 813 813 813 813 814 814 817 826 832 825 817 818 818 815 816 820 821 816 816 820 819 816 818 816 814 815 814 815 818 820 821 818 821 825 816 813 821 826 825 818 811 811 814 825 831 823 822 826 829 824 821 830 833 834 837 830 827 809 781 786 797 788 769 744 735 738 729 722 718 715 716 713 713 714 712 715 719 723
807 806 807 808 809 811 811 813 813 812 814 813 813 814 814 819 828 833 831 822 818 819 817 817 822 823 823 822 818 818 819 817 819 818 813 815 816 815 817 817 816 817 816 814 812 814 821 821 819 816 815 817 816 821 828 830 830 826 820 815 809 814 823 826 830 831 815 785 776 797 804 795 775 739 723 726 723 722 719 714 712 710 709 709 709 712 716 721
808 807 808 809 810 811 811 812 812 813 813 812 814 814 817 827 832 829 825 820 817 819 819 821 825 825 827 828 823 821 822 818 819 820 817 819 818 813 813 810 808 808 805 804 805 803 803 810 817 815 815 817 811 811 823 828 828 823 818 816 811 809 810 805 807 815 804 783 790 811 805 793 775 741 724 725 722 723 724 718 714 711 710 709 710 711 716 721
809 809 809 810 810 811 812 812 812 813 812 813 814 816 824 832 830 828 827 819 818 824 826 827 829 831 831 825 820 825 826 819 819 822 823 825 820 812 813 817 813 805 803 810 809 796 789 801 816 811 806 811 806 800 804 810 820 822 814 810 806 805 802 792 795 805 794 783 800 815 804 787 768 740 727 723 715 715 719 721 720 717 715 713 714 716 718 721
809 810 810 810 811 811 812 812 812 813 813 813 815 820 830 831 828 832 828 820 824 829 829 831 831 830 830 824 823 827 822 817 822 823 820 821 816 808 809 817 820 811 809 813 809 803 793 786 794 797 796 804 805 798 794 800 816 820 814 811 803 797 792 783 782 782 773 780 803 810 793 769 745 727 722 719 717 717 717 720 724 721 721 721 721 721 719 718
810 810 810 811 811 811 812 812 813 813 812 814 819 827 831 826 826 830 825 821 827 827 828 835 833 825 823 825 829 830 821 816 823 822 816 815 810 804 800 805 815 814 808 807 804 811 805 784 789 805 806 807 805 804 805 800 804 817 821 815 805 794 786 784 791 793 792 798 803 795 775 752 734 724 721 717 715 713 712 717 722 719 722 726 724 720 718 719
811 811 811 811 812 812 812 812 813 813 813 816 823 830 829 823 825 828 826 826 828 826 824 828 829 821 816 818 823 829 827 822 823 817 814 817 811 806 802 799 808 808 799 800 798 803 800 786 796 810 807 810 808 805 809 798 792 811 816 801 801 804 790 785 799 815 819 803 783 773 758 741 734 724 715 714 713 708 709 715 720 720 726 729 726 726 727 727
812 812 812 813 812 812 813 813 813 814 814 818 824 828 829 826 826 828 829 831 832 832 827 821 821 818 815 814 814 822 826 822 821 814 810 813 803 799 803 798 802 803 798 800 796 797 798 786 791 800 793 805 817 809 808 804 797 803 803 794 801 808 799 794 797 803 810 797 776 769 758 744 739 726 714 717 715 708 713 720 721 723 730 733 732 733 734 732
812 812 813 813 813 813 813 813 814 814 816 823 827 829 831 828 829 832 834 835 834 832 829 821 818 818 820 818 811 819 824 815 816 814 809 808 796 791 796 793 800 809 808 806 798 800 806 789 787 804 801 804 818 810 797 802 806 800 798 801 800 794 792 799 800 790 788 784 768 763 765 760 751 733 718 719 720 720 728 733 732 733 739 740 737 736 736 735
812 812 814 815 814 814 814 814 815 816 819 827 828 828 832 829 831 839 839 836 834 830 827 824 823 822 822 821 815 818 821 814 815 816 809 805 795 790 791 788 799 814 814 809 802 802 809 795 787 806 814 807 809 804 788 789 807 810 807 808 805 800 794 794 799 793 783 775 763 757 753 747 750 749 737 737 745 749 750 748 745 747 748 746 745 744 743 741
811 813 815 817 814 815 816 814 816 818 822 831 832 830 833 830 832 842 843 838 834 830 829 828 828 824 820 822 821 819 820 819 820 818 811 808 797 788 791 792 798 813 817 813 809 806 808 804 791 797 813 807 792 790 783 776 789 802 807 808 805 804 801 796 799 798 787 776 771 769 753 740 757 771 762 759 766 766 764 762 758 757 756 754 754 753 751 749
811 814 816 817 815 816 816 815 821 827 827 833 835 832 834 832 831 839 844 842 837 834 835 832 830 827 822 822 822 822 822 820 822 820 812 810 801 790 794 799 798 807 813 809 810 808 805 807 800 793 799 792 775 778 783 776 777 784 790 794 793 795 798 793 789 789 791 784 776 774 761 752 771 784 774 772 774 771 772 771 766 764 763 762 760 759 757 754
812 816 818 817 816 816 816 819 831 837 830 829 832 832 834 834 833 837 842 842 839 838 838 836 834 832 827 823 823 825 823 818 821 820 810 808 804 795 799 807 804 806 807 804 809 813 807 809 808 795 785 777 772 783 790 785 783 785 785 785 788 791 790 783 776 779 788 788 787 790 778 767 781 789 781 778 777 775 774 772 770 770 768 767 765 762 761 758
815 817 817 817 817 816 818 823 832 833 828 831 836 836 837 837 834 836 839 838 837 838 837 835 834 830 828 828 828 827 825 819 814 811 808 808 806 802 807 811 807 805 804 802 806 811 808 805 803 795 782 770 772 788 796 793 789 785 784 788 791 789 784 783 785 788 786 777 780 789 774 763 779 787 782 782 779 776 775 772 773 774 771 771 769 766 765 762
819 819 818 817 816 817 820 824 827 826 827 833 834 831 835 838 835 833 833 833 836 837 833 832 832 830 830 834 832 827 826 819 810 808 811 810 806 808 814 812 808 805 802 800 802 803 801 798 797 799 793 778 770 774 780 786 788 785 786 793 793 788 787 791 794 796 790 771 768 779 763 751 773 786 779 779 780 777 777 776 776 777 776 775 773 771 769 766
819 820 821 819 817 819 823 827 828 826 829 831 829 830 833 833 834 835 833 834 838 837 832 832 835 834 834 836 833 830 828 823 816 814 816 813 807 808 814 815 812 808 805 806 808 803 799 798 797 799 802 798 785 773 770 778 784 786 791 795 793 790 790 790 789 790 784 767 765 773 756 741 765 786 782 781 783 782 782 781 780 782 782 780 778 776 773 771
818 819 821 821 820 822 828 834 831 826 829 830 829 834 835 828 831 839 838 834 837 839 836 834 836 835 834 835 832 827 826 826 824 819 817 814 807 806 813 816 814 810 809 811 810 806 803 803 799 796 795 792 780 771 775 786 787 785 787 788 789 792 792 793 796 792 782 774 769 762 748 749 776 795 794 792 792 790 789 786 785 787 786 785 783 780 777 776
819 820 823 823 823 824 827 833 831 828 831 832 829 834 835 828 829 834 836 836 838 840 837 835 837 832 829 831 831 827 826 827 827 823 818 816 811 809 813 815 813 814 815 814 812 809 806 801 797 799 796 787 780 778 784 794 794 790 789 789 792 797 797 798 797 786 777 779 775 761 757 776 801 806 802 801 799 799 798 793 790 792 791 789 786 782 781 778
820 823 828 826 824 825 826 829 833 831 832 834 834 835 833 830 829 828 831 837 840 840 835 830 832 830 829 832 831 828 826 823 822 820 816 816 816 812 810 809 814 820 818 815 815 814 812 804 798 802 799 790 792 794 793 796 795 793 801 809 810 809 808 807 801 794 794 795 791 784 783 797 811 810 806 805 804 804 803 797 795 795 794 792 788 784 783 780
823 825 830 829 827 830 834 836 836 833 833 836 835 835 833 830 830 829 831 833 833 837 837 828 824 828 834 837 834 829 825 823 822 820 817 818 818 817 812 806 813 823 820 817 818 819 818 810 803 805 803 795 795 796 797 799 796 801 818 828 824 818 819 821 817 814 816 812 808 808 803 803 810 811 808 807 805 806 805 799 797 797 796 793 788 786 785 782
821 821 826 828 829 836 839 839 836 831 835 839 834 835 838 834 832 834 834 831 826 832 839 832 826 830 834 835 835 830 825 825 826 824 822 822 820 819 817 810 812 821 820 819 822 822 821 816 810 811 809 800 796 797 801 802 801 813 831 832 826 824 824 828 827 824 824 822 817 815 812 809 810 810 810 807 805 806 804 799 798 798 796 793 790 788 787 785
820 820 822 822 829 839 838 837 838 832 833 839 836 836 838 836 838 838 834 832 830 831 836 833 830 834 834 833 835 831 827 829 831 827 825 826 824 821 820 820 822 825 824 825 827 825 825 823 818 818 818 809 800 798 803 803 801 818 839 838 831 830 828 828 831 829 829 829 824 820 820 818 812 811 812 808 806 807 804 800 800 799 797 795 791 789 789 787
821 821 822 821 828 841 841 837 838 835 835 843 843 840 837 837 843 842 832 831 834 833 835 835 834 835 833 832 832 831 831 832 830 827 826 828 827 825 828 831 832 832 831 830 831 831 831 831 825 825 827 817 801 799 806 804 798 815 841 846 838 834 831 831 833 833 831 832 830 827 826 822 816 815 815 810 807 808 804 801 801 800 799 796 793 791 790 788
Wind_Speed
3 4 5 6 7 7 8 8 8 8 8 9 10 11 10 10 9 8 9 8 7 6 4 4 4 5 7 5 4 3 2 0 2 4 3 4 9 11 10 10 10 10 9 9 7 2 1 2 3 4 4 2 0 1 1 2 1 2 2 1 3 2 3 4 5 4 2 3 3 4 5 5 3 3 1 1 1 1 2 4 3 5 3 2 4 3 11 24
3 3 4 6 6 7 8 9 9 9 10 10 10 11 11 10 10 9 10 9 8 6 4 4 4 5 7 6 4 1 1 2 3 3 3 7 10 11 9 9 10 10 8 6 4 1 3 3 3 5 4 1 1 1 1 1 2 2 2 1 4 4 4 4 5 4 3 3 4 4 6 6 5 4 3 2 3 1 3 5 3 7 8 3 1 6 17 24
3 3 4 5 6 6 7 8 9 10 10 11 11 11 11 11 11 10 10 9 9 7 5 4 3 3 6 7 5 1 3 4 4 3 4 7 9 9 9 9 9 8 6 3 1 2 3 3 3 4 3 0 2 1 0 1 2 2 2 2 5 5 4 4 5 5 4 2 4 3 4 5 5 4 3 3 2 3 7 7 5 9 13 7 4 10 18 21
3 3 4 4 5 6 7 8 9 10 11 11 12 11 12 12 11 11 10 9 9 7 5 4 3 3 6 8 5 1 2 5 2 2 3 6 7 8 9 9 8 7 5 2 0 2 2 2 2 3 3 1 3 0 2 3 2 1 3 5 5 3 4 6 6 5 3 2 3 3 2 4 4 4 3 5 2 5 9 10 10 14 14 9 6 10 16 19
3 4 4 5 5 6 7 8 9 10 11 12 12 12 12 12 11 11 10 9 9 7 6 4 3 3 5 7 6 1 4 4 2 2 4 5 6 7 8 8 6 7 5 1 1 2 1 2 3 3 2 1 2 1 3 5 3 1 4 5 4 4 3 5 3 3 1 2 2 3 3 4 2 3 5 8 6 7 6 8 12 13 9 10 11 13 15 17
4 4 5 6 5 6 7 8 9 10 11 11 12 12 12 11 11 10 10 10 9 8 6 4 3 3 4 6 7 1 4 0 3 3 4 4 5 7 8 7 5 5 4 1 1 2 2 3 3 1 1 1 3 3 5 3 1 2 4 3 4 4 3 3 1 1 1 2 2 4 3 2 3 4 5 9 12 8 3 4 7 9 8 13 14 14 14 16
4 5 6 6 5 6 6 7 8 9 10 11 11 11 11 11 10 10 11 10 9 8 6 5 3 3 5 6 6 1 3 3 3 3 4 4 5 7 7 5 3 5 3 1 1 3 3 5 2 3 2 1 3 5 4 3 1 3 5 3 4 3 4 3 0 0 1 3 5 2 1 2 6 5 1 8 16 11 4 1 2 4 8 14 12 12 14 17
5 6 7 7 6 6 7 7 8 8 9 9 10 10 10 11 10 9 10 10 9 7 6 5 4 4 6 6 5 1 2 3 2 3 4 4 4 7 7 5 4 5 3 2 0 3 3 4 3 3 2 3 4 3 2 3 2 4 5 4 2 1 4 3 2 2 2 3 3 0 3 6 7 3 2 10 16 12 7 2 2 4 8 11 11 13 13 15
6 7 7 7 6 6 6 7 7 7 6 7 7 8 9 10 10 9 10 10 8 8 6 5 5 6 7 6 5 1 3 2 3 4 5 4 4 5 6 5 5 4 3 3 1 4 3 3 4 3 3 3 3 2 2 1 3 4 4 2 0 3 5 4 2 4 4 3 1 1 7 7 5 2 6 14 14 9 7 4 4 7 8 9 11 13 13 13
7 7 7 6 6 6 6 5 5 6 4 4 5 6 8 9 10 9 9 8 7 7 6 6 5 7 8 4 6 1 3 3 4 4 6 6 5 4 3 5 5 5 3 2 1 5 4 4 3 3 3 2 2 1 1 3 2 2 2 0 1 3 5 1 2 5 3 3 2 4 8 8 4 2 7 11 6 3 6 6 5 7 9 10 10 11 13 14
7 6 6 6 6 7 8 5 2 3 4 4 5 6 7 8 8 8 8 7 7 7 6 6 7 8 7 4 5 3 3 4 3 5 8 8 6 4 3 4 5 6 5 2 1 2 2 4 3 4 1 1 2 1 1 3 1 1 2 2 3 5 5 2 3 5 2 3 5 6 7 8 2 1 12 10 1 3 7 7 6 7 9 9 10 10 10 13
6 6 5 5 5 7 7 4 3 5 5 6 7 7 7 7 7 8 8 7 7 7 6 7 8 9 5 4 3 4 5 4 4 7 8 8 7 5 4 3 4 6 5 3 3 2 3 4 4 3 2 2 1 1 2 1 3 1 3 3 7 7 6 4 3 4 2 2 5 4 5 7 4 9 16 6 3 3 5 7 7 8 8 7 8 8 8 12
5 5 4 4 4 5 6 6 7 7 7 7 8 8 7 8 8 8 8 8 7 7 7 8 9 8 4 1 3 2 3 3 4 7 7 8 7 5 4 4 5 7 6 4 5 5 6 4 5 5 2 3 1 1 2 4 3 1 2 2 5 7 6 5 1 1 2 2 3 2 4 7 7 14 15 3 5 5 4 8 7 7 7 6 7 7 8 11
5 4 3 2 2 3 6 8 9 9 9 10 9 10 10 10 9 9 9 9 9 9 8 8 7 5 3 1 3 2 1 2 4 8 8 10 10 5 4 5 6 6 6 6 6 5 5 0 6 4 2 3 1 1 4 6 3 1 2 2 2 3 5 6 1 3 2 1 2 3 4 8 9 14 12 3 5 6 6 10 8 7 7 6 7 8 9 11
4 2 1 2 3 4 6 9 10 10 11 10 10 10 10 10 9 8 9 10 10 10 8 5 3 3 2 2 3 3 2 2 4 8 9 12 12 7 5 7 7 5 5 6 4 3 3 3 5 4 0 1 3 3 3 5 4 3 2 4 3 2 5 8 3 5 3 2 2 3 4 9 10 13 9 1 4 6 8 10 8 8 9 8 8 8 9 10
3 1 1 4 5 7 8 9 10 10 10 10 10 10 9 9 8 8 9 9 9 8 4 2 1 3 2 2 1 2 3 2 5 8 8 11 11 7 9 9 6 4 5 4 1 1 3 5 3 2 1 2 4 4 3 4 4 3 0 3 4 2 4 7 3 3 2 1 1 4 5 7 8 10 7 0 5 6 8 10 9 9 10 10 9 8 10 9
3 2 4 6 8 9 10 10 10 11 11 10 10 10 9 8 8 8 8 7 7 6 1 1 1 2 1 1 1 2 3 4 7 6 6 11 8 6 8 6 4 6 5 3 1 1 4 5 1 0 2 2 3 4 3 4 4 3 2 2 4 3 3 4 5 4 1 1 4 4 6 11 14 13 10 5 6 6 8 12 12 11 11 10 9 9 10 10
3 4 5 7 8 9 9 10 11 11 11 11 11 10 10 9 7 6 7 6 5 2 1 2 2 2 1 2 1 3 5 7 8 4 7 11 6 5 5 2 3 6 6 4 3 2 2 3 2 1 3 3 2 5 1 4 3 2 3 3 3 3 4 4 5 3 1 2 6 5 6 14 20 17 14 11 8 8 12 14 13 12 12 11 9 10 10 11
3 5 6 8 9 9 9 10 10 10 10 11 12 11 10 8 6 4 4 5 3 0 1 2 1 2 3 3 3 6 7 7 5 3 8 12 7 3 2 2 3 3 4 1 3 2 2 2 3 1 2 3 2 5 6 7 6 4 4 4 4 5 6 6 6 5 1 3 7 7 9 15 19 19 17 13 7 10 14 14 13 12 11 10 9 10 11 12
3 5 6 9 11 10 9 9 9 9 9 10 9 6 5 4 4 1 1 2 2 3 2 3 2 1 2 3 4 8 6 3 1 2 10 13 6 2 2 4 6 5 3 1 2 2 3 2 2 5 6 6 6 6 6 5 5 3 2 3 5 5 7 5 4 6 1 2 7 6 8 15 19 19 20 14 6 9 14 14 14 13 11 11 11 12 12 13
2 5 7 9 11 10 8 8 8 8 8 7 3 2 2 3 1 2 2 2 3 3 1 3 3 1 3 3 4 6 3 1 1 3 11 11 4 1 2 3 5 2 2 2 2 3 3 1 6 8 9 7 5 5 5 4 3 2 2 4 5 4 8 6 2 5 2 1 6 3 6 17 20 19 18 14 8 11 13 14 15 15 13 10 11 13 13 12
2 5 8 10 11 10 8 7 8 8 6 2 0 1 2 4 2 1 1 1 3 1 0 2 0 2 3 1 3 4 2 3 3 3 10 11 4 1 2 4 4 3 3 1 1 5 3 5 9 8 5 4 4 4 5 3 3 2 1 1 4 4 5 7 3 4 2 1 5 4 7 16 22 19 16 14 11 11 11 12 14 13 12 10 10 12 12 11
3 5 8 10 10 10 9 8 8 7 3 1 1 2 2 2 3 2 2 1 3 1 1 1 1 2 3 2 2 3 2 1 2 5 10 9 3 2 1 4 3 2 3 2 3 0 2 6 7 4 4 5 2 3 5 2 1 2 3 2 5 3 1 4 4 4 2 3 4 5 6 13 18 14 12 11 8 8 8 9 11 10 10 11 11 10 10 12
5 5 7 10 10 10 10 9 8 5 1 2 2 4 4 4 4 3 2 2 2 2 1 1 1 2 1 1 2 3 1 1 2 4 8 6 1 1 2 3 3 2 2 2 5 5 6 6 3 4 4 5 3 1 3 3 3 3 5 6 6 4 4 5 4 5 4 2 2 4 6 9 8 7 10 7 3 6 6 6 9 9 10 11 10 10 11 13
5 6 7 11 10 9 11 9 6 5 2 2 4 6 6 4 2 2 3 3 2 4 2 1 0 1 1 1 2 1 1 2 3 3 5 4 2 0 1 2 2 2 3 3 4 4 8 5 3 4 2 4 4 2 3 6 3 4 5 9 8 4 4 3 5 5 5 4 2 2 4 7 6 8 13 7 5 9 5 4 10 10 9 9 10 11 12 12
5 6 7 11 11 11 11 6 5 6 2 1 5 6 5 3 3 3 4 4 3 5 2 0 0 1 1 1 2 1 2 3 4 2 2 2 1 1 1 1 2 1 4 3 1 3 3 2 3 4 3 3 3 4 5 6 3 4 4 5 5 5 3 1 3 3 2 5 4 3 2 6 8 13 14 6 6 11 8 8 12 10 8 8 9 10 9 10
4 5 8 11 13 14 9 3 6 7 2 1 4 6 4 3 2 2 4 4 3 2 0 1 0 1 1 1 2 2 0 4 2 1 1 1 2 2 1 3 1 1 3 2 2 3 2 2 3 3 4 3 3 5 5 8 6 3 3 4 6 4 2 2 1 1 2 5 4 3 4 3 7 10 7 3 7 11 10 12 12 9 8 8 9 10 9 11
3 4 8 12 15 15 7 2 7 6 2 2 3 7 5 3 2 2 4 2 2 0 1 2 0 1 2 2 3 2 2 3 1 2 2 2 2 3 1 3 4 4 2 4 3 5 2 3 4 4 3 3 5 5 7 10 5 5 4 4 4 3 3 3 3 2 1 4 5 3 5 2 6 9 3 3 6 11 11 12 11 9 9 8 9 10 10 10
2 3 9 13 16 15 6 3 6 4 2 1 2 6 6 2 3 4 5 0 2 1 0 1 0 2 4 3 2 2 2 2 0 3 3 2 1 3 1 3 5 3 1 3 5 6 1 3 6 6 4 5 5 3 6 8 4 2 5 4 3 4 2 3 4 1 2 2 7 6 7 3 5 8 6 2 3 8 10 10 9 9 9 8 8 9 9 8
0 4 10 14 15 12 6 4 5 3 3 2 4 5 3 2 4 6 2 2 1 1 1 1 1 2 5 4 5 4 1 2 3 3 3 1 2 5 1 2 5 4 1 2 4 5 2 1 3 4 4 5 3 2 2 3 3 4 5 4 4 4 3 3 2 3 3 3 9 8 10 6 3 6 6 4 5 7 7 7 8 9 9 9 9 8 8 8
3 5 11 14 12 10 6 3 3 3 4 4 5 5 3 3 5 5 2 4 1 1 1 1 2 3 6 3 4 4 1 3 4 3 2 2 3 5 2 0 2 3 3 4 4 5 3 0 2 2 2 4 5 3 2 2 3 4 3 3 3 4 3 4 3 3 1 6 7 4 7 5 4 7 6 6 7 6 7 7 9 9 10 9 8 8 7 7
6 6 11 12 9 8 5 2 2 1 2 5 6 4 4 3 2 1 3 3 2 2 1 1 3 3 4 2 3 3 2 3 3 2 1 2 2 2 2 3 2 2 4 3 3 6 3 4 3 2 1 5 5 2 2 4 3 4 2 4 3 4 3 3 3 0 3 7 4 0 3 3 6 10 12 12 13 11 10 10 10 11 11 10 9 9 6 5
7 6 8 8 6 6 5 3 1 1 3 6 4 5 7 4 2 4 3 3 1 2 1 0 2 1 1 3 3 3 2 2 1 2 0 0 2 4 3 3 5 2 2 3 2 4 4 4 1 1 2 3 7 5 2 1 2 5 4 4 3 1 2 4 4 3 5 6 3 0 1 3 5 7 13 18 18 14 10 10 11 11 12 11 10 8 7 5
6 5 5 5 4 4 6 4 1 2 7 7 5 5 5 1 5 3 2 3 2 2 1 0 4 3 0 2 3 2 1 2 1 1 1 1 2 3 4 3 4 4 2 1 1 1 2 6 3 5 2 4 8 6 4 5 4 4 4 4 4 5 3 5 4 4 6 5 3 2 1 4 5 3 7 12 12 10 8 7 8 10 10 9 8 8 9 8
7 6 5 4 3 2 4 4 1 5 9 6 7 5 3 3 4 1 3 4 1 2 2 0 2 4 3 3 3 1 1 2 1 1 1 1 2 3 3 4 5 4 4 2 3 2 3 7 5 1 1 6 6 3 4 6 2 2 3 4 2 5 4 3 4 4 2 4 3 3 3 6 6 5 9 10 12 12 11 6 5 9 8 6 8 9 8 8
6 7 7 6 4 2 4 4 3 6 7 6 6 2 4 4 2 3 3 1 1 1 3 4 2 1 4 4 3 2 0 2 2 2 2 3 4 4 4 4 6 7 6 5 3 2 1 6 4 2 1 5 5 3 2 1 1 1 3 3 4 4 5 2 3 1 3 2 4 3 5 6 4 7 10 11 15 16 12 6 4 7 7 7 7 7 7 8
5 5 6 7 7 4 5 5 6 6 5 7 4 3 4 3 3 4 2 0 0 1 3 4 2 1 2 3 3 3 2 2 2 2 2 3 3 5 4 3 5 9 7 3 2 3 2 6 5 3 3 4 2 2 3 3 4 5 3 5 3 1 3 2 2 3 2 3 5 2 7 7 3 5 6 5 9 12 9 10 9 8 9 9 8 8 9 9
3 5 5 7 7 4 5 6 6 6 6 5 1 3 3 2 1 2 1 1 0 2 3 1 3 1 1 1 4 3 1 2 2 1 1 2 3 4 4 2 1 2 3 2 1 2 1 4 5 1 1 2 2 1 4 4 3 4 3 3 1 2 2 1 2 3 2 4 5 3 5 5 3 4 6 7 8 10 11 12 12 12 12 11 11 11 12 11
1 3 3 7 7 4 5 5 4 5 6 3 2 2 1 2 1 0 1 1 1 2 1 3 2 1 1 3 3 3 2 3 1 1 1 1 3 3 4 3 2 3 2 3 2 2 2 1 5 3 1 2 2 1 3 2 2 2 2 3 2 3 3 2 2 2 2 4 6 3 4 4 3 4 6 7 8 11 12 11 11 11 11 10 10 10 11 11
2 2 2 6 7 3 3 3 4 5 4 3 4 2 1 2 2 1 1 1 1 1 2 3 1 1 3 3 3 2 2 3 3 1 2 2 4 5 2 1 3 2 4 4 1 1 1 1 4 5 3 1 2 4 6 4 3 2 2 3 2 2 1 1 2 2 4 3 4 3 5 4 3 5 6 8 10 9 9 10 9 10 11 11 10 11 10 10
3 3 2 5 6 2 2 4 4 3 2 2 3 2 1 1 0 2 3 1 1 1 1 2 3 2 3 2 3 2 1 2 3 2 3 3 3 3 2 2 5 4 2 3 1 1 1 2 3 5 4 4 7 6 6 6 6 6 5 5 5 4 2 1 5 2 3 3 4 3 6 4 3 5 6 8 8 8 9 9 8 10 12 12 11 12 11 11
5 3 3 4 4 2 3 4 2 1 2 2 2 1 1 0 0 1 1 1 0 1 1 1 3 3 3 2 2 1 1 2 2 2 3 4 4 4 3 3 5 5 4 2 3 3 2 2 2 7 8 10 10 3 1 3 3 3 3 3 3 4 5 4 7 3 1 3 2 3 3 2 0 3 6 8 8 9 10 10 10 10 11 12 12 13 13 13
3 1 2 4 4 3 5 3 2 2 1 3 2 1 1 0 0 0 0 1 1 1 1 1 2 2 2 1 0 1 2 3 4 5 4 4 4 6 3 2 4 3 2 1 2 2 1 2 2 6 7 9 7 3 5 3 3 0 3 2 3 3 2 3 5 1 1 4 2 1 3 3 2 2 5 8 9 11 13 14 13 11 10 12 13 13 13 13
2 2 0 4 4 3 4 2 1 2 4 3 3 2 1 1 2 2 2 2 1 2 1 1 2 1 1 0 1 2 3 2 3 4 2 2 4 4 2 3 3 1 1 3 1 1 2 1 1 3 7 10 8 5 6 5 2 2 3 1 1 3 4 2 1 1 2 8 6 2 7 5 2 5 9 12 14 14 14 14 12 12 11 12 12 12 12 12
2 1 1 4 5 5 2 3 5 2 3 2 3 4 3 1 2 2 2 2 2 3 2 2 0 1 1 0 0 2 3 3 3 3 1 2 5 3 2 2 3 1 2 2 1 2 3 2 2 3 7 8 9 8 5 3 2 2 1 3 2 4 6 4 2 3 6 9 7 5 10 7 3 13 17 17 17 16 16 14 11 11 11 11 11 11 11 11
2 1 2 4 5 5 2 1 4 3 1 0 2 3 1 2 3 0 2 2 1 2 1 1 0 1 1 1 1 3 3 3 4 3 4 4 5 3 1 2 3 4 3 3 3 0 0 2 4 6 9 10 13 13 5 5 6 8 9 9 6 5 7 4 1 4 8 9 8 11 14 10 7 15 17 15 16 16 16 15 11 10 11 12 10 10 10 10
2 1 1 1 3 3 3 3 4 3 1 1 1 2 1 3 4 2 1 1 1 1 1 0 1 1 2 1 2 3 3 2 2 4 6 6 5 5 5 3 4 5 3 2 3 2 0 6 5 6 10 14 16 16 10 9 10 13 14 14 11 8 4 4 7 10 11 9 9 12 13 8 7 12 15 13 13 13 14 15 11 9 10 11 10 10 12 12
1 2 2 1 1 0 1 2 2 4 2 1 1 1 2 3 4 3 1 1 2 1 1 1 2 3 4 2 1 3 5 3 3 3 4 5 4 7 7 2 1 4 3 1 3 3 1 7 4 2 10 14 14 13 10 8 9 8 8 10 12 12 8 6 9 9 9 7 8 13 13 7 6 11 14 13 11 13 14 13 9 8 10 11 10 11 14 14
1 1 1 2 1 2 1 1 2 5 4 3 1 1 0 1 4 3 2 1 2 1 0 2 5 5 3 2 2 2 4 4 5 4 1 5 6 5 6 4 1 4 4 3 4 1 2 4 3 3 10 15 14 9 5 5 5 5 8 10 11 11 9 8 8 10 8 5 8 13 9 7 8 10 12 11 9 10 12 11 7 8 11 11 11 12 14 15
1 2 1 2 3 1 1 3 3 4 3 2 2 1 1 1 3 5 2 1 2 3 1 2 6 6 3 4 4 4 5 4 7 7 4 8 9 2 2 3 2 5 4 3 3 2 1 2 4 4 7 13 12 7 4 4 4 5 10 14 13 10 10 9 9 11 8 6 10 11 7 6 8 9 12 11 9 10 12 12 9 8 11 13 12 13 14 15
2 2 2 4 3 3 3 2 3 4 3 3 2 2 1 1 2 5 3 2 1 1 2 3 7 5 2 3 4 6 8 5 8 12 9 9 8 3 3 3 5 8 6 3 3 3 2 3 5 6 5 10 10 7 7 9 6 5 12 17 15 10 10 8 6 8 8 8 10 9 7 8 9 10 12 11 11 13 15 13 10 9 11 13 13 14 14 15
3 2 2 4 3 3 3 2 3 4 2 1 1 2 2 3 3 3 2 2 1 2 4 5 4 2 2 3 4 6 7 7 11 12 8 7 9 7 5 5 6 6 4 3 2 1 1 2 4 4 3 9 12 10 10 11 8 2 7 12 13 8 8 8 4 7 9 7 6 6 6 9 11 11 13 14 15 15 14 11 8 8 11 13 13 13 12 14
Wind_Direction
277 281 278 277 276 274 270 266 259 253 249 246 244 243 241 238 237 239 248 257 257 255 248 247 259 226 206 191 161 123 97 356 265 233 234 320 339 336 330 323 317 317 314 308 304 289 175 119 133 139 111 86 218 285 208 168 119 81 109 195 236 204 213 196 195 198 174 250 214 196 204 188 216 221 185 328 31 54 258 241 258 291 272 226 296 304 172 169
283 288 286 282 277 272 269 264 259 253 245 241 242 243 242 239 237 239 245 253 257 254 241 239 249 220 210 207 183 163 297 319 304 258 273 318 330 332 329 324 321 324 324 316 305 251 118 84 94 119 103 73 257 290 241 208 156 145 132 213 232 202 221 208 192 194 185 219 194 203 209 201 215 184 159 227 245 212 230 252 251 272 262 240 297 167 166 167
296 303 299 289 281 277 269 263 260 256 250 243 238 239 242 240 236 237 241 247 252 253 244 230 231 219 211 211 191 205 295 344 335 284 297 324 338 342 337 329 328 336 335 324 312 135 122 97 96 108 98 194 261 246 187 285 209 181 150 223 246 215 239 239 201 204 212 172 164 219 210 210 226 160 159 210 227 218 222 235 206 238 244 212 159 162 167 169
309 314 311 296 280 271 266 262 260 257 255 251 243 238 236 239 238 237 239 244 248 250 242 221 216 210 205 206 187 198 1 21 330 255 325 343 356 353 342 333 333 340 336 322 228 153 134 88 96 103 104 217 290 309 190 239 209 184 171 211 247 205 243 251 210 210 221 152 167 182 141 225 226 155 184 169 179 251 232 229 210 223 228 191 168 173 175 175
316 317 310 294 276 266 261 258 258 256 254 252 249 245 238 238 239 241 241 241 246 246 240 221 206 192 194 195 186 182 41 35 288 288 349 354 2 352 346 340 333 337 347 346 210 166 168 100 87 72 78 237 286 51 228 228 168 189 210 214 233 173 232 264 217 206 181 102 144 147 163 218 165 163 204 172 202 242 225 226 218 225 216 173 175 178 179 183
311 309 299 286 274 265 261 256 255 256 255 253 252 250 246 241 237 241 242 240 239 239 239 222 201 189 191 189 189 157 66 120 272 332 337 357 358 346 350 343 333 343 360 14 189 141 120 74 79 113 93 258 216 201 247 259 129 227 251 236 222 173 209 267 154 212 157 119 185 188 214 188 151 250 225 190 224 235 188 219 225 233 200 170 174 172 180 189
307 303 296 292 289 281 273 260 251 248 251 254 254 252 250 245 236 233 236 238 234 231 232 217 201 191 184 180 187 103 68 234 279 338 323 356 349 341 350 347 350 345 344 355 76 129 95 76 116 177 133 310 233 210 258 313 20 224 256 266 238 189 212 243 144 214 136 185 228 219 273 206 201 246 258 209 235 238 220 240 238 222 167 161 169 177 189 192
308 305 306 310 308 302 289 275 262 249 242 243 249 250 245 243 236 225 221 225 225 221 221 207 199 184 174 167 166 23 345 254 298 338 327 349 347 348 349 350 358 340 327 308 268 155 115 113 186 179 158 267 212 197 303 337 347 218 235 256 258 270 257 282 341 332 328 243 263 311 246 239 215 232 310 239 242 242 237 231 123 133 145 163 180 188 195 196
310 306 309 311 309 310 296 280 270 257 240 230 234 239 235 232 230 221 210 209 207 207 206 193 187 166 165 156 114 39 280 278 329 328 337 340 344 357 347 351 357 346 348 313 262 167 157 179 205 183 194 231 187 217 342 355 270 224 215 243 221 310 306 336 331 300 309 277 323 258 260 268 255 291 273 248 248 242 223 210 154 143 161 183 192 192 194 198
301 301 305 309 325 336 330 303 269 250 230 210 208 211 214 218 220 212 199 193 189 191 188 178 170 156 168 149 83 82 272 337 326 316 343 337 336 352 346 360 7 2 1 345 155 160 175 209 198 150 176 192 174 226 76 164 225 195 136 176 186 308 312 8 253 281 306 278 215 217 264 281 289 321 257 250 260 216 185 206 185 167 191 197 199 201 198 202
295 305 312 322 343 349 351 348 267 210 186 166 171 184 198 209 205 189 180 178 174 170 170 167 162 166 171 118 102 183 292 332 308 326 340 335 334 327 325 351 5 8 5 16 124 168 229 239 168 114 174 205 168 357 266 197 132 85 86 307 294 335 315 232 242 273 298 270 201 187 263 284 327 244 246 251 285 157 175 205 208 195 213 205 204 207 201 211
299 314 323 335 354 360 9 33 106 138 143 140 157 175 186 190 174 162 162 162 159 155 161 159 162 174 159 71 136 219 307 312 305 334 335 334 334 310 300 321 347 356 353 358 342 347 330 268 155 139 241 185 164 311 254 159 68 56 64 326 302 350 332 280 264 250 197 221 194 169 290 277 224 230 245 248 105 161 188 214 223 216 225 216 213 212 210 218
305 321 331 352 12 21 41 74 103 118 125 131 147 156 158 158 151 151 152 149 150 149 153 156 166 171 130 55 224 230 315 309 334 346 342 337 333 305 272 279 322 336 331 331 331 348 338 278 168 162 188 112 177 269 88 48 43 284 48 34 312 351 326 287 337 176 168 201 190 147 298 268 240 247 252 244 125 154 203 233 233 229 232 224 220 218 221 221
304 314 332 13 50 65 77 88 101 111 117 125 134 136 139 140 141 147 145 145 144 138 135 146 169 166 114 251 233 175 283 313 356 358 355 345 343 325 255 261 295 313 315 311 314 344 354 258 135 114 69 92 201 40 38 9 18 314 323 22 355 335 287 290 291 139 154 242 132 113 265 266 267 268 267 242 170 170 216 243 235 232 236 227 223 220 227 224
290 294 347 75 98 105 100 98 103 110 115 121 123 124 127 129 135 137 138 144 141 134 124 127 163 143 83 294 232 183 263 313 358 352 351 345 342 329 298 297 295 303 320 313 315 2 37 104 97 80 17 9 47 61 17 344 8 24 303 308 340 211 271 306 280 168 183 309 79 129 250 275 271 269 282 276 184 190 224 247 241 237 238 229 227 222 228 230
261 240 131 117 120 117 111 106 110 113 114 115 114 115 116 120 126 126 136 146 147 148 127 81 109 120 101 311 241 215 272 312 336 337 343 338 330 314 316 319 311 321 327 318 318 32 46 66 69 87 141 45 60 78 30 357 341 1 63 266 284 248 288 320 309 215 202 350 309 205 241 284 271 262 286 231 171 193 230 253 247 238 239 232 228 223 227 232
232 195 148 134 131 122 115 114 117 115 112 112 110 108 108 112 119 125 133 136 149 168 168 341 3 104 104 301 235 277 294 310 318 322 343 342 329 312 324 333 343 344 343 348 358 24 29 44 65 333 53 51 78 85 32 331 301 323 18 262 257 248 269 301 309 310 53 191 245 233 237 262 266 266 275 246 184 190 232 251 248 238 238 234 230 230 229 228
217 191 161 150 145 131 125 126 124 118 116 113 107 100 97 101 106 119 129 129 136 145 326 324 43 84 312 325 295 289 301 307 310 312 345 348 338 322 330 341 354 357 10 18 18 35 13 24 65 10 11 7 46 90 145 241 221 259 272 271 284 275 248 253 279 299 44 244 242 251 263 262 268 271 268 252 209 211 238 247 249 243 238 235 231 232 231 229
200 192 175 166 160 145 139 141 132 127 125 118 109 98 90 89 90 110 127 121 134 139 262 268 63 154 236 294 299 306 308 304 302 313 351 353 341 336 25 37 13 34 49 17 333 11 53 30 46 35 291 279 225 158 192 210 182 201 222 215 256 276 265 241 247 268 266 271 256 244 256 266 273 276 275 266 215 216 244 249 251 248 240 237 231 232 232 233
199 202 191 176 170 160 153 157 149 138 134 128 117 92 81 78 54 344 324 74 174 181 179 227 199 176 266 288 311 328 322 296 252 353 360 353 346 28 54 21 25 46 67 181 268 357 83 56 261 227 228 228 224 196 183 179 156 156 178 221 248 254 275 263 252 285 266 242 264 241 255 272 274 275 277 276 230 222 245 248 253 251 244 238 232 235 233 234
211 206 196 181 179 174 163 169 166 149 142 138 120 72 141 164 72 328 298 316 246 183 208 252 202 223 280 274 326 350 353 329 307 8 2 352 1 52 309 17 47 20 323 214 254 354 64 247 243 229 224 209 198 176 145 133 136 135 192 260 278 236 264 273 256 298 321 213 270 289 297 282 277 277 279 282 259 241 243 242 250 251 246 242 234 237 236 236
232 211 199 189 188 187 175 172 172 159 149 147 218 144 178 197 194 206 130 294 270 191 240 288 211 287 294 299 344 11 50 5 324 324 355 355 19 14 299 48 88 232 319 29 333 359 1 252 245 233 206 147 120 126 121 119 136 130 140 251 282 249 276 295 303 325 343 207 277 333 323 286 283 284 282 280 264 253 246 234 243 248 248 245 235 237 237 239
250 216 200 196 193 193 189 181 176 166 151 18 331 183 187 194 186 175 90 91 286 319 21 2 95 296 326 6 357 35 61 4 276 295 344 2 27 40 99 79 88 211 351 60 165 185 284 253 245 218 155 141 112 84 106 93 118 181 166 200 264 259 291 287 300 324 284 226 278 315 310 283 285 292 285 272 253 261 265 245 245 244 244 244 235 233 229 230
250 221 204 198 192 195 193 186 182 175 164 34 73 145 142 140 166 168 73 56 295 311 335 258 176 200 266 328 357 51 104 216 210 289 346 23 99 15 111 122 104 176 258 147 152 191 241 244 179 112 107 146 166 35 127 163 279 255 203 212 244 246 225 241 288 315 298 297 293 316 316 283 286 306 291 280 264 280 284 273 267 247 240 247 244 236 224 222
246 225 207 195 193 191 184 184 192 189 191 90 122 142 134 125 146 129 72 52 322 305 324 293 288 194 210 351 344 51 121 263 229 258 342 37 151 324 44 137 118 208 221 142 139 228 259 257 146 122 78 118 158 243 199 180 248 300 232 218 221 212 215 261 328 340 341 332 299 28 355 289 299 304 283 289 317 295 299 298 276 259 244 242 242 240 230 227
240 224 205 193 189 180 171 180 202 190 210 186 156 162 140 109 97 96 79 55 328 293 315 278 22 333 259 346 346 103 62 303 256 258 343 40 119 101 129 277 13 219 190 149 173 245 261 336 85 137 144 126 160 250 234 169 150 303 255 200 167 134 127 333 355 8 333 284 264 102 104 268 302 298 281 296 318 294 297 287 270 263 253 236 236 240 231 229
240 224 197 189 183 173 166 181 191 182 206 210 172 183 168 85 86 100 64 35 335 270 187 262 28 54 250 300 16 117 292 307 307 325 36 70 349 53 118 274 331 215 183 125 313 260 181 69 43 105 128 146 198 252 227 154 131 252 234 123 117 124 165 192 98 134 232 283 286 156 158 235 288 283 277 347 321 301 300 288 278 272 259 240 239 240 231 229
244 224 190 185 181 175 169 159 176 173 173 167 153 184 180 54 30 97 74 40 319 83 86 290 229 42 322 338 55 102 274 324 44 286 341 54 336 36 21 249 191 206 195 135 249 267 165 172 198 166 138 195 217 229 192 159 159 243 195 114 113 145 182 156 131 212 273 349 304 219 159 206 268 267 285 24 309 294 288 277 274 273 264 250 246 243 236 235
252 205 181 180 178 177 174 156 166 154 148 142 92 171 186 10 18 65 75 139 299 47 115 341 244 308 341 358 14 13 313 341 100 274 332 44 18 51 61 214 149 174 238 149 225 259 223 215 199 161 168 218 225 226 182 169 192 212 130 93 57 77 84 94 117 149 57 359 264 226 173 194 269 270 283 333 269 262 263 265 264 263 266 262 257 253 247 241
55 165 170 174 174 175 168 150 151 117 86 89 102 144 171 6 48 65 43 246 283 331 231 357 295 331 19 10 323 336 330 293 320 323 349 21 359 31 115 174 99 120 289 333 251 256 309 286 190 161 194 200 168 112 136 153 150 121 100 72 26 44 53 46 85 88 67 259 256 220 182 185 281 270 255 236 222 216 225 257 270 268 270 265 258 255 250 242
74 139 163 166 168 173 169 146 152 123 65 91 125 116 76 25 64 89 242 249 230 326 345 358 323 22 46 30 305 328 351 309 328 356 352 341 350 14 61 42 46 70 352 339 293 293 332 255 228 245 198 137 107 83 45 43 98 107 79 60 4 343 21 17 2 48 115 247 268 236 179 173 238 258 255 237 235 217 205 236 257 260 264 265 263 258 250 246
79 117 159 166 168 174 174 148 159 155 66 115 126 82 67 38 15 174 260 309 340 317 350 313 316 29 44 9 277 296 318 306 340 52 24 345 330 285 175 185 194 359 332 297 307 323 289 220 248 298 200 141 121 95 9 3 61 104 95 76 35 326 346 338 297 277 218 244 272 218 172 203 235 258 271 267 262 250 228 231 243 252 260 263 268 271 268 258
90 105 144 162 171 183 182 157 93 86 148 137 108 55 74 78 264 228 272 326 325 319 30 244 323 28 20 325 281 273 277 254 320 51 206 349 340 282 252 205 173 153 285 245 329 338 308 298 294 173 262 178 155 160 204 250 150 150 153 131 134 140 323 284 265 276 271 266 290 58 213 265 267 264 257 257 265 265 249 238 242 252 259 262 273 288 297 282
85 101 125 144 154 185 197 197 345 118 152 133 81 58 77 152 239 220 271 271 261 337 20 102 345 354 237 251 267 271 278 264 325 34 292 349 355 291 284 262 181 131 112 234 289 189 260 297 224 182 225 172 178 194 168 141 152 179 158 135 154 158 195 251 237 244 273 291 305 297 220 206 215 257 253 246 262 275 262 245 247 257 261 271 289 293 289 281
73 88 96 104 113 133 176 193 226 153 149 110 62 74 130 228 252 212 241 257 289 332 306 115 20 351 308 276 286 274 206 268 333 16 264 201 205 225 233 232 199 148 120 173 254 173 203 264 258 269 190 163 186 210 133 118 136 215 130 112 189 184 176 231 216 196 249 319 292 238 231 217 213 295 296 271 271 276 272 269 267 270 278 300 295 282 286 296
78 83 74 69 66 82 138 157 164 159 143 91 65 97 193 225 232 182 213 255 51 292 328 352 41 5 310 309 317 332 332 264 314 342 268 221 220 216 216 222 194 181 162 161 219 203 226 269 278 1 262 190 185 181 157 174 181 158 148 186 230 185 140 183 267 353 67 292 267 208 247 273 308 298 281 274 279 280 291 328 318 288 316 332 303 299 318 323
74 89 70 51 42 65 130 139 141 145 114 83 96 205 223 221 190 185 201 68 97 115 51 355 306 231 302 312 299 307 325 293 306 333 278 267 253 206 215 258 197 192 194 168 238 225 212 275 262 185 228 243 184 177 281 263 163 139 191 224 228 143 102 114 261 334 34 250 267 242 255 279 323 292 300 330 300 288 314 353 351 341 358 354 335 340 337 323
63 114 75 39 32 62 125 130 129 119 83 75 123 241 226 212 184 181 173 133 128 67 81 261 256 228 226 275 281 275 246 278 315 329 258 278 268 195 185 249 148 175 213 162 283 271 148 285 286 171 191 292 32 65 288 279 152 142 216 244 136 170 246 78 156 255 249 254 277 277 276 279 219 255 313 331 315 324 345 0 5 1 4 359 350 349 341 338
23 123 49 17 22 62 118 127 114 80 69 97 228 258 227 253 277 202 200 163 110 95 154 236 251 325 216 192 246 272 234 224 245 313 242 239 267 225 190 207 86 22 344 124 173 253 106 269 288 333 349 296 15 154 225 258 56 50 307 323 26 174 205 162 165 199 184 251 281 300 309 296 242 267 317 333 348 1 360 4 10 2 358 355 351 349 347 353
26 95 353 357 26 74 126 100 68 63 74 165 206 223 257 279 293 307 310 307 147 148 232 228 196 294 260 224 241 271 263 211 177 209 241 237 275 263 238 158 112 54 360 43 73 246 70 200 256 304 335 269 215 203 199 190 159 162 233 262 250 198 182 256 237 157 141 222 264 279 281 292 329 330 354 16 17 17 9 5 3 356 357 357 360 4 1 7
55 69 311 353 34 73 103 62 51 73 98 190 213 225 259 253 302 325 348 33 197 232 221 194 188 212 242 265 271 261 287 247 194 206 240 242 258 263 305 80 134 148 72 37 359 237 182 183 237 295 309 249 242 227 199 197 182 174 195 210 205 180 135 258 259 223 146 209 200 212 271 294 2 342 12 34 18 15 14 9 4 4 9 9 12 17 15 18
67 75 290 348 28 31 69 62 17 82 125 215 239 230 263 43 91 291 341 29 248 256 6 212 202 207 216 233 260 263 282 260 210 197 242 244 222 237 321 50 119 128 111 157 232 225 181 145 245 276 270 261 265 270 173 203 163 159 200 189 168 165 153 208 252 253 134 258 174 125 272 273 67 348 19 28 15 19 16 13 17 15 18 20 17 18 17 18
88 147 289 9 16 35 68 61 324 346 229 250 284 257 206 123 109 220 254 282 211 163 355 285 205 214 241 235 348 300 250 243 206 197 242 277 241 246 289 79 125 108 87 216 242 233 179 134 248 272 286 285 284 32 38 30 77 161 255 172 143 192 205 218 239 203 121 279 298 81 265 241 118 26 36 32 18 21 17 13 19 17 18 21 16 16 15 13
132 189 317 19 15 54 87 150 222 298 281 306 356 318 281 178 182 185 226 249 223 142 177 262 227 232 277 99 109 233 243 266 243 225 239 266 251 270 283 189 187 167 204 220 197 215 237 193 228 301 313 305 306 344 357 1 42 217 257 304 251 267 298 315 238 164 251 265 254 242 265 244 107 25 24 25 17 20 17 11 17 17 14 13 10 12 11 10
103 44 312 355 28 70 110 177 151 163 278 341 346 312 326 312 219 179 197 236 198 164 197 288 284 217 285 54 111 267 243 221 244 280 356 265 267 313 15 211 234 249 246 258 248 237 247 203 183 269 283 285 289 294 313 346 306 258 348 344 303 243 249 258 270 234 252 266 254 248 266 258 36 21 15 14 9 11 9 5 14 18 10 7 6 5 6 10
108 37 313 332 15 57 72 129 111 119 216 297 314 306 339 303 289 267 175 213 173 158 224 295 356 24 358 18 310 287 262 225 243 296 325 290 274 299 316 208 228 243 267 336 348 139 244 261 217 221 245 259 268 272 303 19 321 302 312 308 293 251 230 217 246 252 258 277 267 258 272 287 352 10 10 8 6 5 357 355 6 12 4 1 360 359 4 9
118 146 141 336 347 26 33 11 53 86 198 206 244 304 305 286 309 348 160 193 29 17 274 202 97 258 252 293 305 279 281 280 251 272 287 274 260 290 290 213 227 277 295 345 343 66 28 281 253 215 243 258 270 283 318 347 310 295 303 307 310 310 277 219 236 259 271 277 271 282 304 331 359 3 3 359 3 5 350 344 354 4 360 353 350 357 3 4
83 170 151 122 297 62 56 347 79 104 67 23 134 326 323 320 330 331 262 313 22 30 320 336 317 262 244 262 332 298 304 305 243 238 277 289 302 320 312 227 184 334 356 359 344 66 181 274 280 248 266 270 278 294 312 310 294 299 324 338 336 331 329 290 268 289 304 291 299 321 339 17 27 3 357 352 1 3 342 332 342 358 355 348 349 0 3 360
71 119 327 22 71 165 155 350 107 103 64 24 37 7 322 340 332 303 243 5 359 352 92 279 294 296 269 222 197 268 297 307 289 271 262 303 307 319 312 295 28 18 34 32 343 75 154 282 319 324 290 288 293 305 322 303 306 360 17 7 356 349 358 359 345 349 347 326 340 345 357 41 36 6 351 346 359 356 332 325 342 357 354 349 354 2 1 358
118 146 216 50 61 63 19 27 70 94 63 21 26 355 203 163 331 309 250 154 311 321 79 233 291 310 281 201 182 233 253 268 292 286 284 308 311 325 281 284 353 3 20 57 330 332 105 298 342 7 302 291 302 329 8 324 312 36 29 8 1 8 21 22 10 4 1 345 347 351 3 18 10 1 351 342 347 347 334 334 348 359 355 352 356 1 360 355
95 110 129 104 72 355 358 23 69 88 54 9 13 340 316 79 347 315 287 215 241 265 184 247 294 309 270 195 195 247 263 265 269 267 270 284 287 285 306 329 8 348 344 24 350 346 14 300 336 11 312 294 311 330 332 318 314 52 40 9 355 2 18 16 11 14 9 345 341 355 10 351 336 348 352 339 341 345 337 334 345 359 358 355 354 357 358 353
90 50 70 100 85 359 5 18 36 67 68 351 333 316 321 327 330 334 313 305 359 137 193 233 274 301 324 312 275 268 276 269 260 265 274 268 266 285 323 2 13 343 309 334 346 18 71 323 320 352 314 295 303 309 317 318 316 28 54 15 347 343 10 9 7 22 15 359 347 351 351 335 329 341 347 336 339 344 333 329 344 354 355 355 352 353 355 349